User: anonymous   Login
Location: Barruelo
(41.2448°N, 3.8231°W)
Time: 02:45:20
(UTC+00:00)
Language:

Cosmos-2242 - Orbit

View from above orbital plane
View from above orbital plane
View from above satellite
View from above satellite

Ground track
Ground track

The orbit is defined by the following mean orbital elements,

1 22626U          26040.75331775 +.00000000 +00000-0 +18018-3 0 00002
2 22626  82.5190 293.4368 0017567  43.2087 317.0510 14.96432385    02
Epoch (UTC): 09 February 2026 18:04:46
Eccentricity: 0.0017567
inclination: 82.5190°
perigee height: 566 km
apogee height: 590 km
right ascension of ascending node: 293.4368°
argument of perigee: 43.2087°
revolutions per day: 14.96432385
mean anomaly at epoch: 317.0510°

The dashed part of the orbit path shows where the satellite is in the earth's shadow,  

DLR